TimeEST,TemperatureF,Dew PointF,Humidity,Sea Level PressureIn,VisibilityMPH,Wind Direction,Wind SpeedMPH,Gust SpeedMPH,PrecipitationIn,Events,Conditions,WindDirDegrees,DateUTC
12:15 AM,51.8,50.0,94,29.97,5.0,SSW,11.5,20.7,N/A,,Overcast,200,2012-12-05 05:15:00
12:35 AM,51.8,50.0,94,29.96,4.0,SSW,12.7,17.3,N/A,,Overcast,200,2012-12-05 05:35:00
12:55 AM,51.8,48.2,88,29.95,3.0,SSW,13.8,-,N/A,,Overcast,200,2012-12-05 05:55:00
1:35 AM,51.8,50.0,94,29.93,4.0,SSW,11.5,18.4,N/A,,Overcast,200,2012-12-05 06:35:00
1:55 AM,51.8,50.0,94,29.92,5.0,SSW,12.7,21.9,N/A,,Overcast,200,2012-12-05 06:55:00
2:15 AM,51.8,50.0,94,29.90,5.0,SSW,12.7,20.7,N/A,,Overcast,200,2012-12-05 07:15:00
2:55 AM,51.8,50.0,94,29.88,7.0,SSW,11.5,18.4,N/A,,Overcast,200,2012-12-05 07:55:00
3:15 AM,51.8,50.0,94,29.86,9.0,SSW,12.7,17.3,N/A,,Overcast,200,2012-12-05 08:15:00
3:35 AM,51.8,50.0,94,29.85,10.0,SSW,10.4,18.4,N/A,,Overcast,210,2012-12-05 08:35:00
3:55 AM,51.8,50.0,94,29.84,8.0,SSW,10.4,18.4,N/A,,Overcast,200,2012-12-05 08:55:00
4:15 AM,51.8,51.8,100,29.83,8.0,SSW,11.5,17.3,N/A,,Overcast,200,2012-12-05 09:15:00
4:35 AM,51.8,51.8,100,29.81,8.0,SSW,12.7,18.4,N/A,,Overcast,200,2012-12-05 09:35:00
4:55 AM,53.6,51.8,94,29.80,8.0,SSW,11.5,18.4,N/A,,Overcast,200,2012-12-05 09:55:00
5:15 AM,53.6,51.8,94,29.79,8.0,SSW,10.4,17.3,N/A,,Overcast,200,2012-12-05 10:15:00
5:35 AM,53.6,51.8,94,29.78,8.0,SSW,10.4,21.9,N/A,,Overcast,200,2012-12-05 10:35:00
5:55 AM,53.6,51.8,94,29.77,7.0,SW,12.7,17.3,N/A,,Overcast,220,2012-12-05 10:55:00
6:15 AM,53.6,51.8,94,29.76,7.0,SSW,16.1,21.9,N/A,,Overcast,210,2012-12-05 11:15:00
6:35 AM,53.6,51.8,94,29.76,4.0,SW,15.0,19.6,0.02,,Overcast,220,2012-12-05 11:35:00
6:55 AM,53.6,53.6,100,29.78,5.0,West,23.0,28.8,0.05,,Overcast,270,2012-12-05 11:55:00
7:15 AM,51.8,48.2,88,29.79,6.0,WNW,8.1,17.3,0.14,,Overcast,290,2012-12-05 12:15:00
7:35 AM,50.0,48.2,94,29.79,9.0,NW,4.6,-,0.14,,Overcast,320,2012-12-05 12:35:00
9:55 AM,48.2,46.4,93,29.82,10.0,West,6.9,-,N/A,,Mostly Cloudy,280,2012-12-05 14:55:00
10:15 AM,50.0,46.4,87,29.81,10.0,WNW,10.4,-,N/A,,Clear,290,2012-12-05 15:15:00
10:35 AM,51.8,46.4,82,29.80,10.0,West,10.4,-,N/A,,Partly Cloudy,270,2012-12-05 15:35:00
10:55 AM,53.6,44.6,72,29.80,10.0,West,13.8,-,N/A,,Clear,280,2012-12-05 15:55:00
11:35 AM,53.6,42.8,67,29.79,10.0,West,13.8,-,N/A,,Partly Cloudy,280,2012-12-05 16:35:00
11:55 AM,53.6,42.8,67,29.80,10.0,West,12.7,-,N/A,,Mostly Cloudy,270,2012-12-05 16:55:00
12:15 PM,53.6,42.8,67,29.80,10.0,West,10.4,-,N/A,,Mostly Cloudy,280,2012-12-05 17:15:00
12:35 PM,53.6,39.2,58,29.80,10.0,WNW,11.5,20.7,N/A,,Mostly Cloudy,300,2012-12-05 17:35:00
12:55 PM,51.8,37.4,58,29.79,10.0,WNW,15.0,20.7,N/A,,Partly Cloudy,290,2012-12-05 17:55:00
1:55 PM,51.8,35.6,54,29.80,10.0,NW,8.1,-,N/A,,Mostly Cloudy,310,2012-12-05 18:55:00
2:15 PM,51.8,35.6,54,29.80,10.0,WNW,6.9,-,N/A,,Overcast,290,2012-12-05 19:15:00
2:35 PM,50.0,33.8,54,29.82,10.0,NNW,10.4,20.7,N/A,,Mostly Cloudy,330,2012-12-05 19:35:00
2:55 PM,46.4,33.8,62,29.83,10.0,NW,9.2,20.7,N/A,,Scattered Clouds,310,2012-12-05 19:55:00
3:15 PM,46.4,33.8,62,29.84,10.0,NW,6.9,20.7,N/A,,Clear,310,2012-12-05 20:15:00
3:35 PM,44.6,32.0,61,29.85,10.0,NNW,10.4,17.3,N/A,,Partly Cloudy,330,2012-12-05 20:35:00
3:55 PM,44.6,30.2,57,29.86,10.0,NW,6.9,19.6,N/A,,Mostly Cloudy,310,2012-12-05 20:55:00
4:35 PM,42.8,26.6,53,29.87,10.0,NW,10.4,20.7,N/A,,Overcast,310,2012-12-05 21:35:00
4:55 PM,42.8,26.6,53,29.88,10.0,WNW,12.7,19.6,N/A,,Overcast,300,2012-12-05 21:55:00
5:15 PM,41.0,26.6,57,29.89,10.0,NW,6.9,17.3,N/A,,Overcast,320,2012-12-05 22:15:00
5:35 PM,41.0,24.8,53,29.89,10.0,WNW,15.0,24.2,N/A,,Overcast,300,2012-12-05 22:35:00
5:55 PM,41.0,23.0,49,29.91,10.0,WNW,16.1,26.5,N/A,,Overcast,300,2012-12-05 22:55:00
6:15 PM,39.2,24.8,56,29.91,10.0,WNW,11.5,19.6,N/A,,Overcast,300,2012-12-05 23:15:00
6:35 PM,39.2,23.0,52,29.91,10.0,WNW,16.1,24.2,N/A,,Overcast,300,2012-12-05 23:35:00
6:55 PM,39.2,23.0,52,29.92,10.0,WNW,15.0,23.0,N/A,,Overcast,300,2012-12-05 23:55:00
7:15 PM,39.2,23.0,52,29.93,10.0,WNW,15.0,21.9,N/A,,Overcast,290,2012-12-06 00:15:00
7:35 PM,37.4,23.0,56,29.94,10.0,WNW,16.1,21.9,N/A,,Overcast,300,2012-12-06 00:35:00
7:55 PM,37.4,23.0,56,29.94,10.0,WNW,10.4,18.4,N/A,,Mostly Cloudy,300,2012-12-06 00:55:00
8:15 PM,37.4,23.0,56,29.94,10.0,WNW,11.5,17.3,N/A,,Mostly Cloudy,300,2012-12-06 01:15:00
8:35 PM,37.4,21.2,52,29.94,10.0,NW,9.2,16.1,N/A,,Overcast,310,2012-12-06 01:35:00
8:55 PM,37.4,19.4,48,29.95,10.0,NW,10.4,17.3,N/A,,Overcast,310,2012-12-06 01:55:00
9:15 PM,35.6,21.2,56,29.97,10.0,NW,10.4,20.7,N/A,,Overcast,320,2012-12-06 02:15:00
9:35 PM,35.6,21.2,56,29.98,10.0,NW,10.4,18.4,N/A,,Overcast,310,2012-12-06 02:35:00
9:55 PM,35.6,19.4,52,29.99,10.0,NNW,6.9,17.3,N/A,,Overcast,330,2012-12-06 02:55:00
10:15 PM,33.8,19.4,56,30.00,10.0,NNW,13.8,20.7,N/A,,Overcast,330,2012-12-06 03:15:00
10:35 PM,33.8,17.6,52,30.01,10.0,NNW,9.2,19.6,N/A,,Overcast,330,2012-12-06 03:35:00
10:55 PM,33.8,17.6,52,30.01,10.0,NNW,10.4,19.6,N/A,,Overcast,330,2012-12-06 03:55:00
11:15 PM,33.8,17.6,52,30.01,10.0,NW,5.8,19.6,N/A,,Overcast,320,2012-12-06 04:15:00
11:35 PM,33.8,17.6,52,30.02,10.0,NW,12.7,24.2,N/A,,Overcast,310,2012-12-06 04:35:00
11:55 PM,33.8,17.6,52,30.02,10.0,NW,11.5,17.3,N/A,,Overcast,310,2012-12-06 04:55:00